| time (UTC) | temp C | wind direction | speed KPH | gust KPH | rain 1hr cm | rain 24hr cm | rain mn cm | humidity % | barometer mb |
| 20260505201607 | 16 | 338 | 6.4 | 16.1 | 0.00 | 0.00 | 0.00 | 43 | 1012.3 |
| 20260505200101 | 16 | 294 | 8.0 | 16.1 | 0.00 | 0.00 | 0.00 | 44 | 1012.3 |
| 20260505194555 | 16 | 333 | 3.2 | 17.7 | 0.00 | 0.00 | 0.00 | 45 | 1012.5 |
| 20260505193102 | 15 | 244 | 4.8 | 16.1 | 0.00 | 0.00 | 0.00 | 47 | 1012.6 |
| 20260505191556 | 14 | 300 | 8.0 | 17.7 | 0.00 | 0.00 | 0.00 | 47 | 1012.8 |
| 20260505190053 | 14 | 292 | 9.7 | 19.3 | 0.00 | 0.00 | 0.00 | 47 | 1012.9 |
| 20260505184559 | 14 | 315 | 4.8 | 19.3 | 0.00 | 0.00 | 0.00 | 50 | 1012.8 |
| 20260505183053 | 15 | 287 | 3.2 | 12.9 | 0.00 | 0.00 | 0.00 | 49 | 1012.8 |
| 20260505181554 | 15 | 236 | 6.4 | 19.3 | 0.00 | 0.00 | 0.00 | 51 | 1012.9 |
| 20260505180058 | 15 | 272 | 6.4 | 19.3 | 0.00 | 0.00 | 0.00 | 51 | 1012.7 |
| 20260505174556 | 15 | 301 | 1.6 | 11.3 | 0.00 | 0.00 | 0.00 | 41 | 1012.6 |
| 20260505173053 | 15 | 309 | 3.2 | 14.5 | 0.00 | 0.00 | 0.00 | 41 | 1012.5 |
| 20260505171558 | 15 | 279 | 3.2 | 11.3 | 0.00 | 0.00 | 0.00 | 42 | 1012.5 |
| 20260505170055 | 15 | 300 | 6.4 | 14.5 | 0.00 | 0.00 | 0.00 | 40 | 1012.8 |
| 20260505164602 | 15 | 351 | 6.4 | 19.3 | 0.00 | 0.00 | 0.00 | 44 | 1012.7 |
| 20260505163055 | 14 | 292 | 6.4 | 17.7 | 0.00 | 0.00 | 0.00 | 45 | 1012.9 |
| 20260505161559 | 13 | 338 | 11.3 | 19.3 | 0.00 | 0.00 | 0.00 | 47 | 1012.8 |
| 20260505153058 | 12 | 325 | 14.5 | 27.4 | 0.00 | 0.00 | 0.00 | 50 | 1013.3 |
| 20260505151557 | 12 | 321 | 16.1 | 27.4 | 0.00 | 0.00 | 0.00 | 55 | 1013.5 |
| 20260505140109 | 12 | 9 | 14.5 | 30.6 | 0.00 | 0.00 | 0.00 | 57 | 1013.6 |
| 20260505124556 | 14 | 248 | 0.0 | 9.7 | 0.00 | 0.00 | 0.00 | 38 | 1012.4 |
| 20260505123056 | 14 | 254 | 3.2 | 6.4 | 0.00 | 0.00 | 0.00 | 37 | 1012.7 |
| 20260505121602 | 14 | 219 | 0.0 | 6.4 | 0.00 | 0.00 | 0.00 | 37 | 1012.4 |
| 20260505120111 | 14 | 255 | 3.2 | 12.9 | 0.00 | 0.00 | 0.00 | 36 | 1012.5 |
| 20260505114559 | 14 | 270 | 9.7 | 17.7 | 0.00 | 0.00 | 0.00 | 36 | 1012.6 |
| 20260505113101 | 14 | 278 | 1.6 | 6.4 | 0.00 | 0.00 | 0.00 | 35 | 1012.3 |
| 20260505111555 | 14 | 0 | 0.0 | 9.7 | 0.00 | 0.00 | 0.00 | 35 | 1012.3 |
| 20260505101558 | 15 | 219 | 1.6 | 6.4 | 0.00 | 0.00 | 0.00 | 34 | 1012.5 |
| 20260505100057 | 15 | 0 | 0.0 | 4.8 | 0.00 | 0.00 | 0.00 | 33 | 1012.4 |
| 20260505094559 | 15 | 0 | 1.6 | 6.4 | 0.00 | 0.00 | 0.00 | 33 | 1012.3 |
| 20260505093056 | 15 | 0 | 0.0 | 4.8 | 0.00 | 0.00 | 0.00 | 32 | 1012.2 |
| 20260505091555 | 15 | 153 | 1.6 | 4.8 | 0.00 | 0.00 | 0.00 | 32 | 1012.6 |
| 20260505090058 | 16 | 0 | 0.0 | 8.0 | 0.00 | 0.00 | 0.00 | 30 | 1012.5 |
| 20260505084603 | 16 | 286 | 4.8 | 16.1 | 0.00 | 0.00 | 0.00 | 30 | 1012.7 |
| 20260505083105 | 16 | 311 | 4.8 | 11.3 | 0.00 | 0.00 | 0.00 | 30 | 1012.6 |
| 20260505081555 | 16 | 250 | 4.8 | 17.7 | 0.00 | 0.00 | 0.00 | 30 | 1012.9 |
| 20260505080054 | 16 | 294 | 6.4 | 16.1 | 0.00 | 0.00 | 0.00 | 30 | 1013.1 |
| 20260505074552 | 16 | 280 | 6.4 | 16.1 | 0.00 | 0.00 | 0.00 | 29 | 1013.2 |
| 20260505073055 | 17 | 276 | 6.4 | 16.1 | 0.00 | 0.00 | 0.00 | 29 | 1013.1 |
| 20260505071559 | 17 | 253 | 8.0 | 22.5 | 0.00 | 0.00 | 0.00 | 29 | 1012.9 |
| 20260505064557 | 17 | 252 | 11.3 | 24.1 | 0.00 | 0.00 | 0.00 | 27 | 1012.5 |
| 20260505063052 | 17 | 240 | 11.3 | 22.5 | 0.00 | 0.00 | 0.00 | 26 | 1012.3 |
| 20260505061613 | 18 | 231 | 11.3 | 24.1 | 0.00 | 0.00 | 0.00 | 25 | 1012.4 |
| 20260505060059 | 18 | 239 | 11.3 | 25.7 | 0.00 | 0.00 | 0.00 | 24 | 1012.2 |
| 20260505054558 | 18 | 263 | 12.9 | 25.7 | 0.00 | 0.00 | 0.00 | 24 | 1012.2 |
| 20260505053056 | 18 | 221 | 11.3 | 22.5 | 0.00 | 0.00 | 0.00 | 24 | 1012.1 |
| 20260505051553 | 18 | 235 | 8.0 | 19.3 | 0.00 | 0.00 | 0.00 | 24 | 1012.1 |
| 20260505041605 | 20 | 250 | 8.0 | 16.1 | 0.00 | 0.00 | 0.00 | 23 | 1011.9 |
| 20260505034556 | 20 | 248 | 8.0 | 14.5 | 0.00 | 0.00 | 0.00 | 22 | 1011.8 |
| 20260505033103 | 20 | 273 | 3.2 | 17.7 | 0.00 | 0.00 | 0.00 | 22 | 1011.6 |
| 20260505031556 | 20 | 279 | 9.7 | 20.9 | 0.00 | 0.00 | 0.00 | 22 | 1011.4 |
| 20260505030056 | 21 | 267 | 9.7 | 22.5 | 0.00 | 0.00 | 0.00 | 21 | 1011.3 |
| 20260505024554 | 21 | 252 | 9.7 | 27.4 | 0.00 | 0.00 | 0.00 | 20 | 1011.1 |
| 20260505023052 | 21 | 315 | 9.7 | 32.2 | 0.00 | 0.00 | 0.00 | 20 | 1011.0 |
| 20260505021602 | 21 | 255 | 16.1 | 33.8 | 0.00 | 0.00 | 0.00 | 19 | 1010.8 |
| 20260505020053 | 22 | 271 | 11.3 | 20.9 | 0.00 | 0.00 | 0.00 | 19 | 1010.6 |
| 20260505014555 | 22 | 248 | 14.5 | 22.5 | 0.00 | 0.00 | 0.00 | 18 | 1010.3 |
| 20260505013053 | 22 | 271 | 9.7 | 20.9 | 0.00 | 0.00 | 0.00 | 18 | 1010.1 |
| 20260505011551 | 22 | 246 | 11.3 | 24.1 | 0.00 | 0.00 | 0.00 | 18 | 1009.9 |
| 20260505010103 | 23 | 254 | 12.9 | 27.4 | 0.00 | 0.00 | 0.00 | 18 | 1009.8 |
| 20260505004601 | 23 | 254 | 17.7 | 33.8 | 0.00 | 0.00 | 0.00 | 17 | 1009.8 |
| 20260505003057 | 23 | 253 | 16.1 | 32.2 | 0.00 | 0.00 | 0.00 | 16 | 1010.0 |
| 20260505001554 | 23 | 257 | 19.3 | 33.8 | 0.00 | 0.00 | 0.00 | 15 | 1010.0 |
| 20260505000106 | 23 | 256 | 16.1 | 29.0 | 0.00 | 0.00 | 0.00 | 14 | 1010.0 |
| 20260504234606 | 23 | 209 | 14.5 | 35.4 | 0.00 | 0.00 | 0.00 | 14 | 1010.1 |
| 20260504233058 | 23 | 271 | 12.9 | 30.6 | 0.00 | 0.00 | 0.00 | 13 | 1010.5 |
| 20260504231558 | 23 | 267 | 11.3 | 35.4 | 0.00 | 0.00 | 0.00 | 13 | 1010.3 |
| 20260504230104 | 23 | 244 | 12.9 | 32.2 | 0.00 | 0.00 | 0.00 | 12 | 1010.4 |
| 20260504224604 | 24 | 269 | 19.3 | 30.6 | 0.00 | 0.00 | 0.00 | 12 | 1010.6 |
| 20260504223056 | 24 | 268 | 17.7 | 40.2 | 0.00 | 0.00 | 0.00 | 12 | 1010.6 |
| 20260504221554 | 24 | 231 | 16.1 | 33.8 | 0.00 | 0.00 | 0.00 | 12 | 1010.9 |
| 20260504220103 | 24 | 248 | 16.1 | 38.6 | 0.00 | 0.00 | 0.00 | 12 | 1010.9 |
| 20260504214600 | 24 | 218 | 16.1 | 35.4 | 0.00 | 0.00 | 0.00 | 12 | 1011.2 |
| 20260504213109 | 25 | 231 | 16.1 | 37.0 | 0.00 | 0.00 | 0.00 | 12 | 1011.3 |
| 20260504211554 | 25 | 221 | 16.1 | 37.0 | 0.00 | 0.00 | 0.00 | 12 | 1011.5 |
| 20260504210052 | 25 | 227 | 12.9 | 20.9 | 0.00 | 0.00 | 0.00 | 12 | 1011.9 |
| 20260504204601 | 25 | 257 | 11.3 | 25.7 | 0.00 | 0.00 | 0.00 | 14 | 1012.2 |
| 20260504203056 | 24 | 216 | 6.4 | 20.9 | 0.00 | 0.00 | 0.00 | 16 | 1012.7 |